Location: Unspecified
(0.0000°N, 0.0000°E)
Time: 12:36:51
(UTC+00:00)

GALILEO-FM2 - Visible Passes

Search period start: 04 December 2022 00:00
Search period end: 14 December 2022 00:00
Orbit: 23211 x 23233 km, 57.0° (Epoch: 03 December)

Date Brightness Start Highest point End Pass type
(mag) Time Alt. Az. Time Alt. Az. Time Alt. Az.
04 Dec ? 17:28:30 10° SSW 20:54:09 76° W 05:26:31 10° ESE daylight
06 Dec ? 04:17:33 10° NNW 08:07:29 90° W 11:59:02 10° SSE visible
07 Dec ? 10:52:28 10° WNW 19:20:41 77° E 22:47:35 10° NNE visible
08 Dec ? 21:19:59 10° SW 23:17:58 26° W 09:41:41 10° SSE visible
10 Dec ? 08:06:39 10° NW 17:47:39 51° E 20:36:10 10° NNE visible
11 Dec ? 18:59:21 10° SSW 21:46:46 50° W 07:29:06 10° SE visible
13 Dec ? 05:53:49 10° NNW 09:00:24 63° W 18:16:11 10° NE visible
